Albion, NE

8:07 PM CDT on June 27, 2017 (GMT -0500)
Albion Municipal

Weather History for KBVN - March, 2013

Change the Weather History Date:

Tuesday, March 5, 2013

  Actual Average (KOFK) Record (KOFK)
Temperature  
Mean Temperature 28 °F -  
Max Temperature 34 °F 41 °F 75 °F (1937)
Min Temperature 19 °F 20 °F -13 °F (1960)
Degree Days  
Heating Degree Days 38    
Moisture  
Dew Point 15 °F    
Average Humidity 62    
Maximum Humidity 82    
Minimum Humidity 47    
Precipitation  
Precipitation 0.00 in - - ()
Sea Level Pressure  
Sea Level Pressure 30.22 in    
Wind  
Wind Speed 21 mph (NNW)    
Max Wind Speed 36 mph    
Max Gust Speed 47 mph    
Visibility 10 miles    
Events      
Averages and records for this station are not official NWS values.
T = Trace of Precipitation, MM = Missing Value Source: NWS Daily Summary

Daily Weather History Graph

Daily Weather History Graph

Search for Another Location

Airport or City:

Trip Planner

Search our weather history database for the weather conditions in past years. The results will help you decide how hot, cold, wet, or windy it might be!

Date:

Astronomy

Mar. 05, 2013 Rise Set
Actual Time 7:00 AM CST 6:27 PM CST
Civil Twilight 6:32 AM CST 6:55 PM CST
Nautical Twilight 6:00 AM CST 7:27 PM CST
Astronomical Twilight 5:27 AM CST 8:00 PM CST
Moon 2:17 AM CST (3/5) 12:04 PM CST (3/5)
Length of Visible Light 12h 23m
Length of Day
11h 27m
Last Quarter, 40% of the Moon is Illuminated
Mar 5
Last Quarter
Mar 11
New
Mar 19
First Quarter
Mar 27
Full
Apr 2
Last Quarter

Hourly Weather History & Observations

Time (CST) Temp. Windchill Dew Point Humidity Pressure Visibility Wind Dir Wind Speed Gust Speed Precip Events Conditions
12:15 AM 26.4 °F 13.6 °F 15.4 °F 63% 30.06 in 10.0 mi NW 17.3 mph 25.3 mph N/A   Scattered Clouds
12:35 AM 26.1 °F 12.0 °F 15.8 °F 65% 30.06 in 10.0 mi NW 20.7 mph 26.5 mph N/A   Scattered Clouds
12:55 AM 26.2 °F 11.5 °F 15.1 °F 63% 30.07 in 10.0 mi NW 23.0 mph 31.1 mph N/A   Overcast
1:15 AM 25.3 °F 12.6 °F 14.0 °F 62% 30.07 in 10.0 mi NW 16.1 mph 23.0 mph N/A   Mostly Cloudy
1:35 AM 24.8 °F 11.1 °F 14.5 °F 65% 30.07 in 10.0 mi NW 18.4 mph 27.6 mph N/A   Mostly Cloudy
1:55 AM 24.8 °F 10.0 °F 12.9 °F 61% 30.07 in 10.0 mi NW 21.9 mph 31.1 mph N/A   Scattered Clouds
2:15 AM 24.8 °F 10.3 °F 13.6 °F 63% 30.07 in 10.0 mi NW 20.7 mph 27.6 mph N/A   Mostly Cloudy
2:35 AM 23.9 °F 10.3 °F 12.7 °F 62% 30.08 in 10.0 mi NW 17.3 mph 26.5 mph N/A   Scattered Clouds
2:55 AM 23.7 °F 10.5 °F 12.9 °F 63% 30.08 in 10.0 mi NW 16.1 mph 24.2 mph N/A   Clear
3:15 AM 23.5 °F 9.4 °F 12.7 °F 63% 30.08 in 10.0 mi NW 18.4 mph 28.8 mph N/A   Scattered Clouds
3:35 AM 23.7 °F 8.9 °F 12.9 °F 63% 30.08 in 10.0 mi NW 20.7 mph 32.2 mph N/A   Scattered Clouds
3:55 AM 23.5 °F 8.7 °F 13.5 °F 65% 30.08 in 10.0 mi NW 20.7 mph 29.9 mph N/A   Clear
4:15 AM 24.4 °F 10.2 °F 13.5 °F 63% 30.08 in 10.0 mi NW 19.6 mph 28.8 mph N/A   Mostly Cloudy
4:35 AM 24.6 °F 9.4 °F 13.1 °F 62% 30.09 in 10.0 mi NW 23.0 mph 31.1 mph N/A   Overcast
4:55 AM 24.8 °F 8.7 °F 13.5 °F 62% 30.10 in 10.0 mi NW 26.5 mph 35.7 mph N/A   Overcast
5:15 AM 24.8 °F 7.3 °F 13.6 °F 63% 30.10 in 10.0 mi NW 32.2 mph 43.7 mph N/A   Overcast
5:35 AM 24.4 °F 8.2 °F 14.0 °F 65% 30.11 in 10.0 mi NW 26.5 mph 38.0 mph N/A   Overcast
5:55 AM 24.4 °F 7.6 °F 14.0 °F 65% 30.12 in 10.0 mi NW 28.8 mph 36.8 mph N/A   Overcast
6:15 AM 24.3 °F 8.0 °F 14.0 °F 65% 30.12 in 10.0 mi NW 26.5 mph 36.8 mph N/A   Overcast
6:35 AM 24.6 °F 8.8 °F 14.0 °F 64% 30.13 in 10.0 mi NW 25.3 mph 44.9 mph N/A   Overcast
7:15 AM 23.9 °F 6.6 °F 14.0 °F 66% 30.14 in 10.0 mi NW 29.9 mph 39.1 mph N/A   Overcast
7:35 AM 23.7 °F 5.9 °F 13.6 °F 65% 30.15 in 10.0 mi NW 32.2 mph 42.6 mph N/A   Overcast
7:55 AM 23.9 °F 6.6 °F 14.0 °F 66% 30.16 in 10.0 mi NW 29.9 mph 46.0 mph N/A   Overcast
8:15 AM 23.9 °F 6.6 °F 14.4 °F 67% 30.17 in 10.0 mi NW 29.9 mph 36.8 mph N/A   Overcast
8:35 AM 23.9 °F 6.6 °F 14.4 °F 67% 30.18 in 10.0 mi NW 29.9 mph 39.1 mph N/A   Overcast
8:55 AM 24.6 °F 7.6 °F 14.7 °F 66% 30.19 in 10.0 mi NNW 29.9 mph 39.1 mph N/A   Overcast
9:15 AM 24.8 °F 7.6 °F 14.7 °F 66% 30.20 in 10.0 mi NNW 31.1 mph 39.1 mph N/A   Overcast
9:35 AM 25.5 °F 8.8 °F 14.9 °F 64% 30.20 in 10.0 mi NNW 29.9 mph 40.3 mph N/A   Overcast
9:55 AM 26.4 °F 11.2 °F 15.1 °F 62% 30.20 in 10.0 mi NNW 25.3 mph 47.2 mph N/A   Overcast
10:15 AM 27.0 °F 9.8 °F 15.1 °F 61% 30.20 in 10.0 mi NNW 34.5 mph 40.3 mph N/A   Overcast
10:35 AM 28.2 °F 11.3 °F 15.3 °F 58% 30.22 in 10.0 mi NW 35.7 mph 40.3 mph N/A   Overcast
10:55 AM 28.8 °F 13.5 °F 15.4 °F 58% 30.23 in 10.0 mi NW 28.8 mph 35.7 mph N/A   Overcast
11:15 AM 28.6 °F 13.0 °F 14.9 °F 57% 30.24 in 10.0 mi NNW 29.9 mph 40.3 mph N/A   Overcast
11:35 AM 28.4 °F 12.5 °F 14.9 °F 57% 30.25 in 10.0 mi NNW 31.1 mph 39.1 mph N/A   Overcast
11:55 AM 29.5 °F 15.5 °F 15.1 °F 55% 30.25 in 10.0 mi NNW 24.2 mph 39.1 mph N/A   Overcast
12:15 PM 30.7 °F 16.7 °F 15.8 °F 54% 30.25 in 10.0 mi NNW 26.5 mph 40.3 mph N/A   Mostly Cloudy
12:35 PM 30.2 °F 15.2 °F 15.4 °F 54% 30.25 in 10.0 mi NNW 29.9 mph 35.7 mph N/A   Scattered Clouds
12:55 PM 30.9 °F 18.1 °F 15.8 °F 54% 30.25 in 10.0 mi NNW 21.9 mph 32.2 mph N/A   Scattered Clouds
1:15 PM 32.0 °F 17.4 °F 15.6 °F 51% 30.25 in 10.0 mi NW 31.1 mph 36.8 mph N/A   Scattered Clouds
1:35 PM 32.2 °F 19.7 °F 15.6 °F 51% 30.25 in 10.0 mi NNW 21.9 mph 36.8 mph N/A   Scattered Clouds
1:55 PM 33.1 °F 20.1 °F 16.3 °F 50% 30.25 in 10.0 mi NNW 25.3 mph 33.4 mph N/A   Scattered Clouds
2:15 PM 32.2 °F 18.9 °F 15.1 °F 49% 30.25 in 10.0 mi NNW 25.3 mph 34.5 mph N/A   Scattered Clouds
2:35 PM 33.1 °F 21.5 °F 15.8 °F 49% 30.26 in 10.0 mi NNW 19.6 mph 29.9 mph N/A   Scattered Clouds
2:55 PM 32.9 °F 20.4 °F 14.9 °F 48% 30.27 in 10.0 mi NNW 23.0 mph 29.9 mph N/A   Clear
3:15 PM 33.8 °F 22.8 °F 15.4 °F 47% 30.27 in 10.0 mi NNW 18.4 mph 33.4 mph N/A   Clear
3:35 PM 33.4 °F 21.1 °F 14.9 °F 47% 30.27 in 10.0 mi NW 23.0 mph 28.8 mph N/A   Clear
3:55 PM 33.6 °F 23.7 °F 15.4 °F 47% 30.27 in 10.0 mi NW 15.0 mph 26.5 mph N/A   Clear
4:15 PM 34.2 °F 24.0 °F 15.8 °F 47% 30.28 in 10.0 mi NNW 16.1 mph 23.0 mph N/A   Scattered Clouds
4:35 PM 33.4 °F 22.3 °F 15.6 °F 48% 30.28 in 10.0 mi NNW 18.4 mph 24.2 mph N/A   Clear
4:55 PM 33.1 °F 22.2 °F 14.7 °F 47% 30.30 in 10.0 mi NNW 17.3 mph 24.2 mph N/A   Clear
5:15 PM 32.9 °F 22.8 °F 15.3 °F 48% 30.30 in 10.0 mi NNW 15.0 mph 23.0 mph N/A   Clear
5:35 PM 32.0 °F 20.8 °F 14.9 °F 49% 30.30 in 10.0 mi NNW 17.3 mph 24.2 mph N/A   Clear
5:55 PM 31.5 °F 20.9 °F 15.8 °F 52% 30.30 in 10.0 mi North 15.0 mph 24.2 mph N/A   Clear
6:15 PM 30.2 °F 20.2 °F 15.6 °F 55% 30.31 in 10.0 mi North 12.7 mph 18.4 mph N/A   Clear
6:35 PM 28.9 °F 19.8 °F 15.6 °F 58% 30.32 in 10.0 mi North 10.4 mph 16.1 mph N/A   Clear
6:55 PM 28.2 °F 18.3 °F 16.3 °F 61% 30.32 in 10.0 mi North 11.5 mph 17.3 mph N/A   Clear
7:15 PM 27.7 °F 18.8 °F 16.3 °F 62% 30.34 in 10.0 mi North 9.2 mph - N/A   Clear
7:35 PM 27.0 °F 19.5 °F 16.7 °F 65% 30.34 in 10.0 mi North 6.9 mph - N/A   Clear
7:55 PM 26.6 °F 18.2 °F 16.7 °F 66% 30.34 in 10.0 mi North 8.1 mph - N/A   Scattered Clouds
8:15 PM 25.9 °F 17.4 °F 16.7 °F 68% 30.34 in 10.0 mi North 8.1 mph - N/A   Clear
8:35 PM 25.5 °F 16.9 °F 16.7 °F 69% 30.34 in 10.0 mi North 8.1 mph - N/A   Clear
8:55 PM 24.8 °F 15.3 °F 17.1 °F 72% 30.34 in 10.0 mi North 9.2 mph - N/A   Clear
9:15 PM 24.4 °F 17.5 °F 16.7 °F 72% 30.35 in 10.0 mi North 5.8 mph - N/A   Clear
9:35 PM 23.9 °F 15.0 °F 16.5 °F 73% 30.35 in 10.0 mi NNW 8.1 mph - N/A   Clear
9:55 PM 23.5 °F 16.4 °F 16.7 °F 75% 30.36 in 10.0 mi NNW 5.8 mph - N/A   Clear
10:15 PM 23.2 °F 17.2 °F 16.3 °F 75% 30.37 in 10.0 mi NNW 4.6 mph - N/A   Clear
10:35 PM 21.0 °F 13.4 °F 15.8 °F 80% 30.38 in 10.0 mi NW 5.8 mph - N/A   Clear
10:55 PM 21.4 °F 16.6 °F 16.2 °F 80% 30.37 in 10.0 mi NW 3.5 mph - N/A   Clear
11:15 PM 21.0 °F 14.6 °F 16.3 °F 82% 30.37 in 10.0 mi NNW 4.6 mph - N/A   Scattered Clouds
11:35 PM 21.7 °F 15.5 °F 16.2 °F 79% 30.37 in 10.0 mi NNW 4.6 mph - N/A   Clear
11:55 PM 19.9 °F 14.9 °F 15.3 °F 82% 30.37 in 10.0 mi NNW 3.5 mph - N/A   Clear